User: anonymous   Login
Location: Alberta Star Party
(51.6612°N, 112.9089°W)
Time: 18:05:52
(UTC-06:00)
Language:

AO-Echo - Orbit

View from above orbital plane
View from above orbital plane
View from above satellite
View from above satellite

Ground track
Ground track

The orbit data is extracted from the following two-line orbital elements,

1 28375U 04025K   16147.88984558 +.00000056 +00000-0 +29645-4 0  9991
2 28375 098.3273 084.1267 0082918 009.7784 350.4996 14.41779659626092
Epoch (UTC): 26 May 2016 21:21:22
Eccentricity: 0.0082918
inclination: 98.3273°
perigee height: 693 km
apogee height: 812 km
right ascension of ascending node: 84.1267°
argument of perigee: 9.7784°
revolutions per day: 14.41779659
mean anomaly at epoch: 350.4996°
orbit number at epoch: 62609

The dashed part of the orbit path shows where the satellite is in the earth's shadow,  

DLR